| Date | Time | Temp. (oF) | Dew Point (oF) | Rel. Hum. (%) | Press. (in.) | Wind Dir. | Wind Speed (mph) | Hourly Rainfall (in.) |
|
|---|---|---|---|---|---|---|---|---|---|
| 1 | 01/18 | 00:00 | 41 | 41 | 100 | 29.88 | WNW | 0 | 0.00 |
| 2 | 01/17 | 23:00 | 41 | 41 | 100 | 29.90 | WNW | 0 | 0.22 |
| 3 | 01/17 | 22:00 | 40 | 40 | 100 | 29.91 | WNW | 0 | 0.00 |
| 4 | 01/17 | 21:00 | 40 | 40 | 100 | 29.92 | WNW | 0 | 0.00 |
| 5 | 01/17 | 20:00 | 41 | 41 | 100 | 29.94 | WNW | 0 | 0.01 |
| 6 | 01/17 | 19:00 | 41 | 41 | 100 | 29.96 | WNW | 1 | 0.12 |
| 7 | 01/17 | 18:00 | 41 | 41 | 100 | 29.98 | NW | 3 | 0.12 |
| 8 | 01/17 | 17:00 | 41 | 41 | 100 | 29.97 | NW | 0 | 0.01 |
| 9 | 01/17 | 16:00 | 41 | 40 | 97 | 29.99 | NW | 0 | 0.01 |
| 10 | 01/17 | 15:00 | 41 | 39 | 96 | 29.99 | NW | 4 | 0.00 |
| 11 | 01/17 | 14:00 | 41 | 39 | 93 | 30.01 | NW | 4 | 0.00 |
| 12 | 01/17 | 13:00 | 41 | 39 | 93 | 30.04 | NW | 5 | 0.00 |
| 13 | 01/17 | 12:00 | 40 | 38 | 95 | 30.07 | NW | 10 | 0.00 |
| 14 | 01/17 | 11:00 | 38 | 36 | 96 | 30.13 | NW | 1 | 0.00 |
| 15 | 01/17 | 10:00 | 36 | 33 | 91 | 30.16 | NW | 3 | 0.00 |
| 16 | 01/17 | 09:00 | 36 | 31 | 84 | 30.18 | NW | 0 | 0.00 |
| 17 | 01/17 | 08:00 | 35 | 31 | 87 | 30.18 | NW | 0 | 0.00 |
| 18 | 01/17 | 07:00 | 34 | 30 | 86 | 30.18 | NW | 0 | 0.00 |
| 19 | 01/17 | 06:00 | 35 | 30 | 84 | 30.18 | NW | 0 | 0.00 |
| 20 | 01/17 | 05:00 | 35 | 29 | 81 | 30.19 | NW | 0 | 0.00 |
| 21 | 01/17 | 04:00 | 35 | 29 | 81 | 30.20 | NW | 1 | 0.00 |
| 22 | 01/17 | 03:00 | 35 | 28 | 78 | 30.23 | NW | 0 | 0.00 |
| 23 | 01/17 | 02:00 | 35 | 29 | 80 | 30.24 | NW | 1 | 0.00 |
| 24 | 01/17 | 01:00 | 35 | 28 | 78 | 30.25 | NW | 2 | 0.00 |